San Jose, Costa Rica

10:29 PM CST on August 17, 2017 (GMT -0600)
Juan Santamaria International

Weather History for MROC - August, 2013

Change the Weather History Date:

Saturday, August 31, 2013

  Actual Average Record
Temperature  
Mean Temperature 74 °F -  
Max Temperature 84 °F 79 °F 87 °F (1997)
Min Temperature 64 °F 63 °F 62 °F (1996)
Cooling Degree Days 9    
Growing Degree Days 24 (Base 50)    
Moisture  
Dew Point 65 °F    
Average Humidity 83    
Maximum Humidity 100    
Minimum Humidity 45    
Precipitation  
Precipitation 0.24 in 0.47 in - ()
Sea Level Pressure  
Sea Level Pressure 29.98 in    
Wind  
Wind Speed 3 mph ()    
Max Wind Speed 13 mph    
Max Gust Speed -    
Visibility 6.0 miles    
Events Fog , Rain    
Averages and records for this station are not official NWS values.
T = Trace of Precipitation, MM = Missing Value Source: Averaged Metar Reports

Daily Weather History Graph

Daily Weather History Graph

Search for Another Location

Airport or City:

Trip Planner

Search our weather history database for the weather conditions in past years. The results will help you decide how hot, cold, wet, or windy it might be!

Date:

Astronomy

Aug. 31, 2013 Rise Set
Actual Time 5:27 AM CST 5:46 PM CST
Civil Twilight 5:06 AM CST 6:07 PM CST
Nautical Twilight 4:41 AM CST 6:32 PM CST
Astronomical Twilight 4:16 AM CST 6:57 PM CST
Moon 1:26 AM CST (8/31) 2:16 PM CST (8/31)
Length of Visible Light 13h 01m
Length of Day
12h 18m
Waning Crescent, 20% of the Moon is Illuminated
Aug 31
Waning Crescent
Sep 5
New
Sep 12
First Quarter
Sep 19
Full
Sep 26
Last Quarter

Hourly Weather History & Observations

Time (CST) Temp. Heat Index Dew Point Humidity Pressure Visibility Wind Dir Wind Speed Gust Speed Precip Events Conditions
12:00 AM 69 °F - 66 °F 87% 29.87 in 9 mi Calm Calm - -   Overcast
12:00 AM 69.8 °F - 66.2 °F 88% 30.04 in 6.2 mi Calm Calm - N/A   Mostly Cloudy
1:00 AM 68.0 °F - 66.2 °F 94% 30.02 in 6.2 mi Calm Calm - N/A   Mostly Cloudy
2:00 AM 68.0 °F - 64.4 °F 88% 30.01 in 6.2 mi SE 2.3 mph - N/A   Mostly Cloudy
3:00 AM 68 °F - 65 °F 87% 29.87 in 6 mi Calm Calm - -   Overcast
3:00 AM 68.0 °F - 64.4 °F 88% - 6.2 mi Calm Calm - N/A   Mostly Cloudy
4:00 AM 66.2 °F - 64.4 °F 94% 30.00 in 6.2 mi Calm Calm - N/A Fog Patches of Fog
5:00 AM 66.2 °F - 64.4 °F 94% 30.02 in 6.2 mi Calm Calm - N/A   Mostly Cloudy
6:00 AM 66 °F - 62 °F 83% 29.88 in 9 mi ENE 4.6 mph - - Fog Patches of Fog
6:00 AM 66.2 °F - 62.6 °F 88% 30.02 in 6.2 mi ENE 4.6 mph - N/A Fog Patches of Fog
7:00 AM 68.0 °F - 62.6 °F 83% 30.03 in - NE 3.5 mph - N/A   Clear
8:00 AM 75.2 °F - 62.6 °F 65% 30.03 in - East 3.5 mph - N/A   Clear
9:00 AM 79 °F - 63 °F 49% 29.85 in 12 mi SW 3.5 mph - -   Clear
9:00 AM 78.8 °F - 62.6 °F 57% 30.03 in - SW 3.5 mph - N/A   Clear
10:00 AM 82.4 °F 83.4 °F 62.6 °F 51% 30.03 in 6.2 mi NW 2.3 mph - N/A   Mostly Cloudy
11:00 AM 84.2 °F 84.4 °F 60.8 °F 45% 30.02 in 6.2 mi SE 4.6 mph - N/A   Mostly Cloudy
12:00 PM 80 °F - 69 °F 62% 29.83 in 12 mi SW 12.7 mph - -   Mostly Cloudy
12:00 PM 80.6 °F 83.9 °F 69.8 °F 70% 29.99 in 6.2 mi SW 12.7 mph - N/A   Mostly Cloudy
1:00 PM 71.6 °F - 66.2 °F 83% 29.98 in 6.2 mi SSW 11.5 mph - N/A   Mostly Cloudy
2:00 PM 71.6 °F - 66.2 °F 83% 29.99 in 3.1 mi West 5.8 mph - N/A Rain Light Rain
3:00 PM 69 °F - 65 °F 85% 29.84 in 5 mi WNW 5.8 mph - - Rain Light Rain
3:00 PM 69.8 °F - 66.2 °F 88% 29.98 in 5.0 mi WNW 5.8 mph - N/A Rain Light Rain
4:00 PM 69.8 °F - 68.0 °F 94% 29.99 in 6.2 mi SE 2.3 mph - N/A   Mostly Cloudy
5:00 PM 69.8 °F - 68.0 °F 94% 30.00 in 5.0 mi North 2.3 mph - N/A Fog , Rain Light Rain
6:00 PM 69 °F - 67 °F 92% 29.88 in 3 mi ESE 2.3 mph - - Rain Light Rain
6:00 PM 69.8 °F - 68.0 °F 94% - 3.1 mi ESE 2.3 mph - N/A Rain Light Rain
7:00 PM 68.0 °F - 66.2 °F 94% - 6.2 mi SW 4.6 mph - N/A   Mostly Cloudy
8:00 PM 68.0 °F - 68.0 °F 100% 30.08 in 5.0 mi WNW 2.3 mph - N/A   Mostly Cloudy
9:00 PM 68.0 °F - 66.2 °F 94% - 1.6 mi West 4.6 mph - N/A Rain Light Rain
10:00 PM 68.0 °F - 66.2 °F 94% - 1.9 mi NW 5.8 mph - N/A Rain Light Rain
11:00 PM 68.0 °F - 66.2 °F 94% 30.08 in 6.2 mi WNW 2.3 mph - N/A   Mostly Cloudy